Айтеке-Би

Казахстан     45°50′43″N   62°09′13″E
В апреле 2022 года жителям России запретили посещать сайт meteo.paraplan.net по решению Генеральной прокуратуры. Аудитория сайта уменьшилась в 10 раз. Владельцы сайта не видят смысла в поддержке погодного сервера в таких условиях. Сайт будет закрыт в октябре.
темп.,
°C
ветер,
м/с
пор.,
м/с
влажн.,
%
обл.,
%
осадки,
мм/ч
давл.,
гПа
погр.,
м
30 сентября, пт
пт3023:00+11всв5102276 0.0 1022306
02:00+10всв6112326 0.0 1021307
05:00+8всв5102795 0.0 1022277
08:00+8всв61025100 0.0 1024380
11:00+14всв781574 0.0 1024672
14:00+17св771286 0.0 10241071
17:00+17св781477 0.0 10241115
20:00+14св5101760 0.0 1026255
1 октября, сб
сб123:00+12всв510175 0.0 1027231
02:00+10св591920 0.0 1027206
05:00+9всв510205 0.0 1028231
08:00+8св59215 0.0 1029327
11:00+13всв67165 0.0 1030833
14:00+16всв67145 0.0 10281365
17:00+16всв67121 0.0 10281410
20:00+12всв59145 0.0 1029197
2 октября, вс
вс223:00+10всв59195 0.0 1028183
02:00+8всв48245 0.0 1028155
05:00+7св59225 0.0 1028156
08:00+7св510265 0.0 1028303
11:00+13всв79226 0.0 10281113
14:00+16всв88175 0.0 10261484
17:00+16всв78175 0.0 10251521
20:00+12св5102512 0.0 1025190
3 октября, пн
пн323:00+10св510235 0.0 1024170
02:00+8св59235 0.0 1023150
05:00+7св510250 0.0 1023168
08:00+8св510260 0.0 1023268
11:00+14всв810150 0.0 1023981
14:00+17св88110 0.0 10221400
17:00+17св78100 0.0 10211442
20:00+12св58150 0.0 1023127
4 октября, вт
вт423:00+10св58180 0.0 1023111
02:00+8ссв46200 0.0 102378
05:00+8ссв57220 0.0 102489
08:00+8ссв510230 0.0 1025244
11:00+14св78140 0.0 1025716
14:00+18св66110 0.0 10251306
17:00+18св67110 0.0 10251534
20:00+13ссв46160 0.0 102768